Location: Bonaustraße
(48.4603°N, 11.9280°E)
Time: 03:12:16
(UTC+01:00)

Envisat - Pass Details

Date: 25 January 2021
Orbit: 764 x 766 km, 98.1° (Epoch: 05 March)

Event Time Altitude Azimuth Distance (km) Brightness Sun altitude
Rises 05:32:55 0° 19° (NNE) 3,245 6.4 -22.5°
Reaches altitude 10° 05:35:20 10° 25° (NNE) 2,313 5.7 -22.1°
Maximum altitude 05:40:12 44° 98° (E) 1,048 4.1 -21.3°
Drops below altitude 10° 05:45:02 10° 170° (S) 2,295 5.6 -20.5°
Sets 05:47:26 0° 177° (S) 3,216 6.3 -20.1°
